Temp_Advection
nan nan nan nan nan nan nan nan nan nan nan nan nan nan nan nan nan nan nan nan nan nan nan nan nan nan nan nan nan nan nan nan nan nan nan nan nan nan nan nan nan nan nan nan nan nan nan nan nan
nan -0 -0 -0 -0 0 -0 -0 0 0 -0 0 -0 -0 -0 -0 -0 0 0 0 0 0 0 0 0 0 0 0 0 -0 -0 -0 -0 -0 -0 -0 -0 0 -0 -0 -0 -0 0 -0 -0 0 0 0 nan
nan -0 -0 -1 0 -0 -0 0 -0 0 -0 -0 -0 -0 -0 -0 -0 -0 -0 0 0 0 0 0 0 0 0 0 0 0 -0 -0 -0 -0 -0 -0 -0 -0 -0 -0 -0 -0 -0 0 -0 -0 0 0 nan
nan -0 -1 -0 -0 -0 0 -0 -1 -0 0 -0 -1 -0 -0 0 -0 -0 -0 0 -0 0 0 0 0 0 0 0 -0 0 0 0 -0 -0 -0 -0 -0 -0 -0 -0 -0 -0 -0 -0 -0 0 -1 0 nan
nan -0 -0 0 -0 0 -0 -0 -0 -0 -0 -0 -0 -0 0 0 0 0 0 -0 0 -0 -0 0 0 0 0 0 -0 -0 -0 -0 -0 -0 -0 -0 -0 -0 -0 -0 -0 -0 -0 -0 -0 0 0 0 nan
nan -0 -0 -0 -0 0 -0 -0 -0 -0 -0 -0 -0 -0 0 0 0 0 0 0 0 0 -0 -0 0 0 0 -0 -0 -0 -0 -0 -0 -0 -0 -0 -0 -0 -0 -0 -0 -0 -0 -0 -0 0 0 0 nan
nan -0 -0 -0 -0 0 -0 -0 -0 -0 -0 -0 -0 -0 -0 0 0 0 0 0 -0 0 0 -0 -0 -0 -0 -0 -0 -0 -0 -0 -0 -0 -0 -0 -0 -0 -0 -0 -0 -0 -0 -0 -0 0 0 0 nan
nan -0 0 0 0 -0 -0 -0 -0 -0 -0 -0 -0 -0 -0 -0 0 0 0 0 0 0 0 -0 -0 0 0 0 0 -0 -0 -0 -0 -0 -0 -0 -0 -0 -0 -0 -0 -0 -0 -0 -0 0 0 0 nan
nan -0 -0 -0 -0 0 -0 -0 -0 -0 0 0 0 -0 -0 -0 -0 -0 0 0 0 -0 0 0 0 0 0 -0 -0 -0 -0 -0 -0 -0 -0 -0 -0 -0 -0 -0 -0 -0 -0 -0 -0 0 0 0 nan
nan -0 -1 -0 -0 -0 0 -0 -0 -0 -0 -0 0 0 0 -0 -0 -0 -0 -0 -0 -0 -0 0 0 0 -0 -0 -0 -0 -0 -0 -0 -0 -0 -0 -0 -0 -0 -0 -0 -0 -0 -0 -0 0 -0 -0 nan
nan -0 -0 -0 -0 -0 -0 -0 -0 -0 -0 -0 -0 1 -0 -0 -0 -0 -0 -0 -0 -0 -0 0 0 0 0 0 -0 -0 0 0 -0 -0 -0 -0 -0 -0 -0 -0 -0 0 -0 -0 -0 0 -0 -0 nan
nan 0 0 -0 -0 -0 -0 -0 -0 -0 -0 -0 -1 -0 -0 -0 -0 -0 -0 -0 -0 -0 -0 0 -0 -0 -0 -0 -0 -0 -0 0 0 -0 -0 -0 -0 -0 -0 -0 -0 -0 -0 -0 -0 -0 -0 -0 nan
nan -0 -0 0 -0 -0 -0 -0 -0 0 1 1 -0 -0 -0 -0 -0 -0 -0 -0 0 0 -0 0 -0 -0 -0 -0 -0 -0 0 0 0 -0 -0 -0 -0 0 0 -0 -0 -0 -0 -0 -0 -0 -0 -0 nan
nan -0 0 0 -0 -0 -0 -0 -0 -0 0 0 0 0 -0 -0 0 -0 -0 0 0 -0 -0 -0 -0 -0 -0 -0 -0 -0 0 0 0 0 0 0 0 0 0 -0 0 0 0 -0 -0 -0 -0 -0 nan
nan -0 -0 -0 0 -0 -0 -0 0 -0 0 0 -0 -0 0 0 0 -0 -0 0 0 -0 -0 -0 -0 -0 -0 -0 -0 -0 -0 -0 -0 0 0 0 0 0 0 0 0 0 0 0 0 0 -0 -0 nan
nan -0 0 -0 -0 0 -0 0 -0 0 0 0 0 0 0 0 0 -0 0 -0 -0 -0 -0 -0 -0 -0 0 0 0 0 -0 -0 -0 0 0 -0 -0 0 0 0 0 -0 -0 0 0 0 0 0 nan
nan -0 -0 0 -0 -0 0 0 -0 0 0 0 0 0 0 -0 -0 -0 0 0 -0 -0 0 0 0 0 0 0 0 0 -0 -0 -0 -0 -0 -0 -0 -0 0 0 -0 -0 -0 0 0 0 0 -0 nan
nan -0 0 0 0 -0 -0 0 -0 0 0 -0 -0 -0 -0 -0 -1 0 0 -0 0 0 0 0 0 0 0 0 0 -0 0 0 0 0 -0 -0 -0 -0 -0 -0 -0 -0 -0 0 0 -0 -0 0 nan
nan 0 0 0 0 -0 0 0 0 0 -0 -0 -0 -0 -1 -0 0 0 -0 -0 0 0 0 0 0 0 0 0 0 0 0 0 0 -0 -0 -0 -0 -0 -0 0 0 -0 -0 -0 -0 -0 0 0 nan
nan 0 0 -0 -0 0 0 0 0 -0 -1 -0 -0 -1 -1 0 0 0 0 0 0 0 0 0 0 0 0 0 0 0 -0 -0 -0 0 0 0 0 0 -0 -0 -0 -0 -0 0 -0 -0 -0 -0 nan
nan -0 -0 -0 -0 -0 -0 -0 -0 -0 0 0 0 0 1 1 1 1 1 1 1 0 0 0 0 -0 -0 -0 -0 -0 0 0 -0 -0 -0 -0 -0 -0 -0 -0 -0 -0 -0 -0 -0 -0 -0 -1 nan
nan -0 0 0 -0 -0 -0 0 -0 0 0 0 0 1 1 1 0 1 1 1 0 0 0 0 -0 -0 -0 -0 -0 -0 -0 -0 -0 -0 -0 -1 -1 -0 -1 -1 -1 -1 -1 -1 -0 -0 0 -0 nan
nan -0 -0 -0 0 -0 0 -0 0 -0 0 -0 0 1 0 1 0 -0 0 0 0 -0 0 0 -0 -0 -0 -0 -0 -0 -1 -0 -0 -0 -0 -0 -0 -0 -1 -1 -1 -1 -1 -1 -1 -1 -0 -0 nan
nan -0 -1 -0 -0 0 0 -0 0 -0 -0 -0 -1 0 2 1 0 0 0 0 0 -0 0 0 -0 -0 -0 -0 -0 -1 -1 -0 -0 -0 -0 -0 -0 -0 -0 -1 -1 -1 -0 -0 -0 -0 -0 -0 nan
nan -0 -0 0 -0 -0 0 -0 0 -0 -0 0 -1 1 1 0 0 0 -0 -0 -0 0 0 0 -0 -0 -0 -0 -0 -1 -1 -0 -1 -0 -0 -0 -0 -0 -0 -0 -0 -0 -0 -0 -0 -0 -0 0 nan
nan -0 -0 -0 0 -0 -0 0 0 -0 -0 -0 -0 0 1 1 -0 0 0 -0 -0 0 0 0 -0 -0 -0 -0 -0 -1 -0 -0 -0 -0 -0 -0 -0 0 0 0 -0 -0 -0 -0 -0 -0 -0 -0 nan
nan -0 0 -0 -0 -0 -0 0 -0 -0 -0 -0 0 0 0 0 0 0 0 -0 -0 0 0 0 -0 -0 -0 -0 -0 -0 -0 -0 -0 -0 -0 0 -0 -0 0 0 -0 0 0 0 -0 0 0 -0 nan
nan -0 -0 -0 -0 -0 -0 -0 0 -0 -0 -0 -0 -0 0 -0 0 0 -0 -1 0 0 0 0 -0 -0 -0 -0 -0 0 0 0 0 -0 -0 -0 -0 -0 -0 -0 -0 -0 0 0 -0 -0 0 0 nan
nan -0 -0 -0 -0 0 -0 -0 0 -0 0 -0 -0 -0 0 -0 -0 -0 -0 -0 0 0 0 0 0 -0 -0 -0 -0 0 0 0 0 0 -0 -0 -0 -0 0 0 -0 -0 -0 0 0 -0 0 0 nan
nan nan nan nan nan nan nan nan nan nan nan nan nan nan nan nan nan nan nan nan nan nan nan nan nan nan nan nan nan nan nan nan nan nan nan nan nan nan nan nan nan nan nan nan nan nan nan nan nan
Wind_Speed
4 3 5 2 3 4 3 5 1 3 3 3 4 4 8 9 2 3 17 11 10 9 8 5 3 3 10 16 15 4 3 1 1 1 1 1 1 2 3 4 5 4 3 1 5 6 8 8 6
2 2 2 2 4 2 4 3 5 4 10 19 13 9 7 4 7 15 16 12 13 11 9 5 5 8 8 8 5 4 3 4 4 2 2 3 2 0 2 3 4 5 4 0 4 8 7 13 9
1 1 1 4 3 3 3 2 5 15 15 4 6 10 5 4 16 16 14 15 13 10 8 7 7 6 3 3 2 2 3 4 4 4 4 3 3 2 1 2 2 3 3 4 2 3 8 14 8
2 2 4 4 3 5 3 3 13 6 4 5 13 8 8 6 13 12 18 14 11 8 7 2 2 4 4 2 2 3 3 4 4 4 4 5 4 4 4 4 3 3 3 4 5 6 16 16 11
3 2 4 2 3 4 4 6 12 4 5 4 3 5 5 8 9 15 17 13 9 9 5 6 9 9 9 8 8 7 6 6 6 6 6 6 6 5 5 5 5 5 4 3 4 4 8 19 18
2 2 3 2 3 2 3 6 6 5 6 10 9 8 4 11 15 18 15 12 9 9 10 11 11 12 12 11 10 9 8 8 7 7 7 7 8 7 6 5 5 4 4 4 4 2 4 9 6
4 3 4 3 3 1 4 5 4 6 7 3 10 4 12 18 17 18 14 10 10 9 9 11 11 11 12 12 11 11 10 10 9 8 8 8 8 8 7 5 4 4 3 3 3 3 3 5 6
2 4 2 4 4 5 4 4 5 7 4 9 5 6 8 23 22 17 14 12 9 8 8 9 10 9 8 9 10 9 8 8 9 9 9 8 7 7 6 5 5 3 3 2 1 2 4 5 6
2 4 2 4 5 3 9 5 3 4 9 3 3 13 20 27 21 18 15 13 11 8 8 9 10 11 8 7 8 9 7 6 6 6 8 9 9 8 6 5 6 4 3 3 2 1 3 5 7
4 3 6 4 5 6 7 5 11 5 5 4 9 12 33 26 22 17 16 13 11 7 7 5 4 4 3 3 4 6 8 7 8 8 8 9 10 9 8 7 6 3 3 2 2 1 1 3 6
5 4 3 1 4 10 8 6 5 13 2 7 17 37 29 26 21 16 11 10 8 6 4 1 2 5 4 4 4 6 5 7 7 9 8 11 10 10 9 8 5 6 5 4 3 4 3 3 3
0 4 3 5 7 7 4 9 5 1 2 12 33 31 27 23 21 16 12 10 7 6 4 4 1 8 6 4 2 3 4 6 9 9 10 12 12 11 8 8 6 5 7 8 8 7 7 6 7
3 1 4 8 11 13 11 5 6 4 13 29 28 27 26 23 21 20 15 7 8 7 6 5 3 6 10 12 10 6 5 7 9 10 10 11 12 12 11 10 10 9 10 10 11 12 10 9 9
2 8 6 5 6 7 8 5 3 9 24 26 27 27 25 24 23 20 19 12 13 8 6 6 2 6 9 9 7 7 6 6 6 7 7 10 13 14 14 14 15 15 15 16 16 16 16 16 16
15 5 4 1 5 2 10 2 4 24 26 27 28 26 25 23 22 20 15 15 11 7 6 5 7 7 4 3 1 2 3 3 4 7 9 11 14 16 17 17 17 16 19 22 22 21 20 20 19
3 4 3 4 8 4 2 6 3 27 28 28 28 26 25 23 22 19 14 12 12 10 6 6 8 7 5 4 4 6 8 9 11 13 15 16 18 20 21 22 22 22 23 25 26 27 27 24 24
4 3 4 5 12 5 1 4 7 26 24 22 27 28 26 23 21 18 17 14 10 6 8 8 7 7 8 8 8 11 11 11 11 13 15 16 17 20 19 20 24 24 24 24 27 25 28 25 29
3 3 3 5 3 4 4 6 10 23 23 19 24 27 27 24 24 21 20 16 14 12 10 11 10 11 11 10 11 11 12 12 13 13 16 19 19 19 19 19 20 22 22 24 25 25 27 31 29
1 3 5 4 6 6 10 6 13 21 19 17 24 28 27 26 24 22 21 18 17 13 12 13 12 11 7 6 8 10 12 13 14 16 19 21 22 23 22 22 21 20 21 22 23 24 25 28 29
4 4 7 7 3 8 4 8 6 15 25 28 24 29 29 26 26 23 21 18 16 14 12 9 7 4 2 6 9 10 13 15 16 16 17 17 18 20 22 23 23 24 24 23 22 23 23 24 21
4 5 5 8 2 2 4 5 4 5 14 19 22 27 27 27 23 21 18 17 14 11 9 6 3 3 6 8 10 14 17 17 16 16 17 18 18 17 16 17 18 20 23 25 26 26 26 26 27
3 5 4 5 4 3 3 4 5 4 6 5 9 12 13 16 13 12 13 14 13 11 6 1 3 6 8 11 14 19 20 17 17 17 17 17 17 17 18 18 17 17 18 19 20 21 23 25 26
6 3 1 2 3 3 1 1 6 4 3 3 9 12 13 18 21 21 17 8 6 5 4 3 5 10 12 14 18 22 22 17 15 15 16 16 13 13 16 18 19 19 20 20 20 19 20 22 23
3 4 6 4 3 1 4 5 5 2 3 2 11 21 26 28 26 21 13 5 11 17 6 4 6 11 13 16 21 22 19 16 14 14 14 13 14 15 18 18 19 20 20 21 21 21 21 20 20
6 5 3 3 3 5 0 2 3 5 9 9 15 24 30 29 26 14 2 13 22 12 6 3 7 11 15 19 21 22 19 16 16 15 15 16 18 20 22 22 23 25 23 23 22 21 19 20 21
1 5 4 5 3 5 1 3 2 6 13 18 20 27 28 26 15 4 8 15 13 11 7 3 7 12 17 20 21 21 18 17 16 16 17 18 20 22 24 25 28 29 25 24 22 20 19 19 21
2 2 2 1 3 2 2 2 3 8 6 11 16 21 21 12 1 11 7 9 17 10 4 5 9 14 19 20 21 19 17 17 17 17 18 18 19 22 25 28 32 30 25 23 22 21 21 21 22
6 2 3 4 2 3 4 3 3 2 9 8 7 11 12 5 9 9 11 15 10 6 6 7 10 15 16 19 20 19 19 18 16 17 18 18 19 24 29 31 27 24 20 21 21 19 17 19 19
5 4 5 5 4 3 1 4 3 10 7 6 8 14 7 11 10 12 5 10 6 5 5 7 10 15 15 18 21 22 21 18 16 18 20 19 23 28 25 26 27 22 20 19 19 19 19 20 20
3 3 3 4 4 0 1 4 6 7 10 6 10 11 7 6 6 8 8 5 5 6 6 8 12 12 15 20 23 25 21 15 15 18 18 19 24 29 30 26 23 19 17 17 19 20 21 21 23
Wind_Direction
309 318 333 332 51 66 261 252 299 115 124 83 117 123 106 47 78 148 141 140 158 170 181 177 201 260 272 252 259 281 311 100 349 235 197 129 271 280 291 290 286 291 291 258 144 137 128 145 161
325 7 25 72 85 59 267 249 184 157 120 108 87 86 54 88 95 137 141 147 157 161 178 208 221 241 259 241 270 293 327 30 18 13 12 44 70 141 304 307 308 312 306 146 119 143 144 168 172
135 123 13 93 117 180 253 302 101 127 123 126 104 82 82 93 131 141 164 149 153 155 174 187 233 256 220 201 226 259 335 7 25 24 33 49 68 40 335 310 302 308 307 283 148 152 165 179 181
158 127 67 89 210 254 226 54 118 108 69 28 105 70 80 119 136 151 149 148 146 149 156 175 152 110 99 90 73 65 44 35 28 28 19 22 21 10 355 338 324 305 295 281 275 260 172 184 180
161 98 59 36 263 273 344 112 126 131 97 96 106 123 89 149 154 150 145 139 144 152 145 123 113 97 87 88 81 72 66 52 43 31 19 10 15 8 359 349 344 333 319 291 286 275 204 197 215
103 98 73 221 257 291 108 121 120 101 117 120 112 104 106 141 148 147 147 146 144 138 116 108 103 93 79 81 75 69 63 55 49 34 24 16 17 19 13 6 3 360 341 322 294 258 224 222 214
128 92 197 188 243 215 151 107 84 107 114 107 143 94 139 150 155 150 154 158 144 135 115 97 98 91 80 77 71 63 63 58 52 43 33 29 28 21 22 22 21 21 22 354 315 286 244 185 183
186 95 163 225 206 228 140 91 92 92 110 129 145 140 164 159 156 157 157 159 162 152 124 96 83 80 77 72 60 54 55 52 57 46 36 26 18 12 12 20 18 18 22 8 350 268 250 236 210
176 57 280 246 151 203 145 110 77 106 126 141 140 155 158 159 161 160 164 161 159 156 134 96 79 66 65 53 33 25 19 19 26 26 23 20 13 7 359 333 338 352 358 3 336 274 223 226 227
118 120 235 219 170 158 138 121 138 142 137 86 105 146 152 162 163 168 171 161 162 149 132 98 64 37 28 2 346 349 343 348 351 351 341 348 355 352 347 331 325 304 341 359 13 287 280 243 233
164 198 233 40 122 140 123 105 126 140 196 177 157 146 158 163 166 171 162 139 141 150 155 72 31 357 317 319 335 355 320 323 326 317 314 313 325 331 336 332 311 299 295 289 282 267 275 274 276
188 251 244 138 123 106 97 116 69 27 274 166 150 153 157 165 170 161 158 162 167 152 175 184 99 8 26 21 6 333 298 289 302 315 296 292 303 310 314 331 323 306 302 291 276 274 264 267 265
201 87 51 111 100 102 121 89 124 92 139 147 151 158 165 167 163 170 173 159 174 172 169 172 70 70 72 72 67 40 347 313 308 311 310 288 289 295 296 297 301 297 298 295 282 273 267 263 265
40 99 83 91 103 120 119 144 119 157 153 154 162 168 168 170 173 178 190 191 194 184 166 146 92 108 83 86 74 56 37 17 358 334 312 293 286 287 287 287 284 283 286 286 282 277 271 264 264
133 79 60 66 153 152 142 164 191 165 168 166 175 176 181 186 188 191 196 203 202 182 166 154 111 106 122 114 75 354 306 284 278 274 275 277 284 285 285 284 283 284 281 282 282 279 275 270 265
47 57 108 221 175 185 63 258 145 172 174 179 181 185 194 198 202 208 207 199 189 195 179 150 143 158 198 231 259 278 275 270 267 274 280 280 279 280 276 275 278 277 275 270 275 278 272 274 268
2 207 200 301 191 143 164 258 167 180 185 189 192 196 202 208 214 205 197 199 194 189 185 192 187 207 238 250 262 272 278 279 281 282 280 280 281 284 283 277 271 272 274 271 272 270 265 266 266
236 239 253 236 190 154 165 255 172 189 192 200 206 208 212 214 217 199 201 204 196 191 199 215 223 230 243 250 266 279 284 284 279 277 281 286 286 283 281 278 276 275 277 273 274 272 260 265 261
315 218 253 254 203 151 215 213 192 192 200 208 213 214 217 218 216 209 205 201 195 198 211 223 236 236 242 250 262 276 283 287 287 286 284 283 281 278 275 273 272 270 268 269 270 272 273 269 266
229 246 263 281 206 175 167 226 198 192 207 207 208 217 214 223 208 197 192 193 198 202 215 224 190 183 260 298 306 315 315 307 304 306 308 301 292 285 281 279 276 275 274 273 273 272 270 270 270
251 201 246 225 106 70 111 317 201 229 226 220 221 222 222 207 196 193 192 193 198 183 175 180 201 305 328 336 340 337 328 312 310 314 320 321 318 312 305 300 295 289 283 279 278 277 273 270 264
272 203 227 179 126 227 136 275 277 219 233 218 239 222 211 185 165 150 146 146 145 143 146 221 329 347 353 350 340 345 338 324 318 323 327 328 325 328 331 330 323 315 306 297 288 280 277 273 269
227 46 46 90 124 59 260 79 263 21 279 14 107 133 146 149 146 129 114 114 102 17 283 306 342 354 353 347 348 348 342 331 325 326 328 329 334 334 333 333 329 326 324 318 309 297 284 277 277
108 65 44 48 73 67 240 151 283 3 316 11 84 96 121 124 120 120 122 97 297 277 246 286 347 351 350 351 351 354 355 347 340 336 335 333 335 335 334 337 337 334 324 317 310 302 293 287 278
62 55 322 334 8 227 172 75 253 348 330 155 118 103 110 109 103 104 62 276 290 231 244 302 342 348 353 354 356 1 357 355 355 348 342 336 329 332 332 328 334 329 321 318 308 301 294 286 281
273 153 168 243 224 254 291 235 323 80 67 91 99 110 108 104 111 216 226 282 239 234 241 299 343 352 354 357 357 354 347 351 350 346 342 337 333 331 328 325 324 320 313 313 310 298 290 282 280
354 20 278 106 14 30 290 296 99 117 93 101 113 115 117 119 185 169 172 230 238 232 263 323 342 351 355 356 356 349 343 344 341 337 332 320 317 317 317 315 312 309 306 308 311 300 290 283 280
86 356 24 6 357 289 315 333 285 274 158 156 160 132 124 125 193 212 227 234 235 251 313 324 338 348 349 352 351 346 343 335 331 331 327 321 318 321 314 310 314 312 304 303 307 304 303 294 288
352 27 53 111 110 158 300 280 4 309 185 181 161 144 189 197 212 213 228 238 251 301 292 316 332 341 340 344 347 343 337 329 326 326 329 329 327 325 325 319 316 311 302 304 304 302 298 295 292
71 102 97 109 281 247 164 293 8 80 112 143 156 191 194 182 144 333 255 268 307 310 292 313 339 328 332 341 345 342 338 335 336 340 342 337 332 335 330 326 321 311 308 308 306 303 296 293 290
Height
1510 1509 1509 1509 1519 1521 1522 1514 1503 1507 1510 1512 1513 1514 1518 1523 1526 1536 1533 1536 1537 1539 1541 1542 1543 1543 1544 1544 1545 1544 1543 1543 1543 1544 1544 1544 1544 1544 1545 1544 1543 1542 1543 1543 1543 1544 1545 1548 1548
1508 1508 1508 1509 1525 1531 1521 1506 1506 1506 1511 1513 1514 1517 1520 1526 1527 1529 1532 1535 1538 1540 1542 1543 1543 1544 1544 1543 1544 1543 1543 1543 1543 1543 1543 1543 1544 1544 1544 1544 1544 1543 1543 1543 1543 1544 1545 1546 1547
1507 1507 1508 1515 1531 1528 1522 1503 1507 1511 1513 1514 1517 1520 1523 1527 1528 1530 1532 1535 1538 1540 1542 1543 1544 1544 1543 1544 1544 1544 1544 1544 1544 1544 1544 1543 1542 1543 1544 1544 1544 1543 1543 1543 1543 1543 1543 1545 1546
1506 1508 1510 1520 1522 1513 1510 1507 1506 1512 1515 1515 1517 1522 1527 1529 1531 1532 1534 1537 1540 1541 1543 1543 1544 1544 1545 1544 1544 1545 1545 1545 1546 1546 1545 1545 1544 1544 1543 1544 1543 1543 1543 1542 1541 1541 1543 1544 1545
1506 1507 1520 1523 1519 1511 1508 1509 1510 1513 1516 1518 1519 1526 1528 1530 1532 1535 1537 1539 1540 1542 1543 1543 1544 1544 1544 1544 1544 1545 1545 1545 1546 1546 1546 1545 1545 1545 1544 1544 1544 1543 1543 1542 1541 1541 1542 1543 1543
1506 1507 1524 1526 1516 1509 1508 1508 1509 1513 1517 1520 1522 1525 1531 1532 1535 1537 1539 1541 1543 1542 1542 1543 1544 1544 1544 1545 1545 1545 1545 1545 1545 1546 1547 1546 1545 1545 1544 1544 1543 1543 1543 1543 1542 1541 1540 1541 1542
1506 1512 1519 1517 1513 1508 1506 1507 1509 1512 1516 1521 1523 1525 1530 1532 1536 1538 1540 1543 1544 1544 1544 1545 1545 1545 1545 1546 1546 1546 1545 1546 1546 1546 1547 1547 1546 1546 1545 1545 1544 1543 1543 1543 1542 1542 1541 1541 1542
1504 1508 1513 1513 1515 1510 1504 1507 1511 1510 1515 1519 1522 1524 1531 1533 1535 1539 1542 1543 1546 1546 1546 1546 1547 1547 1547 1547 1548 1547 1547 1547 1546 1547 1548 1548 1547 1547 1546 1545 1545 1544 1543 1543 1542 1542 1542 1542 1542
1505 1515 1521 1510 1513 1505 1504 1507 1512 1514 1515 1518 1519 1521 1525 1531 1535 1539 1541 1544 1546 1547 1547 1547 1547 1548 1548 1548 1549 1549 1549 1549 1547 1548 1549 1549 1548 1547 1546 1546 1545 1545 1544 1543 1542 1542 1541 1541 1542
1505 1518 1509 1500 1500 1502 1505 1508 1512 1517 1519 1520 1520 1520 1526 1531 1534 1538 1541 1544 1546 1548 1548 1549 1549 1549 1549 1548 1548 1549 1550 1549 1548 1547 1549 1549 1548 1547 1546 1545 1545 1544 1544 1543 1542 1543 1542 1541 1542
1503 1509 1500 1498 1499 1501 1504 1509 1511 1513 1516 1516 1518 1521 1527 1531 1535 1537 1541 1544 1547 1548 1549 1550 1549 1548 1547 1546 1546 1547 1548 1548 1548 1547 1547 1548 1548 1546 1545 1544 1544 1544 1544 1544 1543 1544 1543 1542 1542
1502 1499 1499 1499 1502 1503 1506 1510 1512 1513 1514 1515 1520 1524 1529 1532 1535 1537 1541 1543 1543 1545 1547 1548 1548 1548 1546 1545 1545 1545 1546 1546 1545 1545 1545 1546 1546 1545 1544 1543 1542 1542 1543 1543 1543 1543 1542 1542 1541
1500 1500 1501 1502 1503 1506 1509 1512 1514 1517 1516 1517 1522 1527 1529 1532 1534 1535 1538 1540 1542 1544 1545 1545 1547 1547 1546 1545 1545 1545 1544 1544 1543 1542 1543 1544 1543 1543 1542 1541 1541 1540 1540 1541 1542 1542 1540 1540 1540
1500 1501 1504 1505 1506 1507 1511 1515 1515 1520 1520 1520 1523 1525 1527 1530 1532 1534 1536 1538 1541 1543 1544 1545 1546 1546 1546 1545 1544 1544 1543 1542 1541 1540 1540 1541 1541 1540 1539 1539 1538 1538 1537 1538 1538 1537 1537 1537 1537
1501 1504 1504 1506 1507 1508 1509 1514 1514 1515 1519 1519 1522 1525 1527 1529 1531 1532 1535 1538 1541 1542 1543 1545 1544 1545 1545 1545 1544 1544 1542 1541 1540 1539 1538 1538 1537 1536 1536 1535 1534 1534 1534 1534 1534 1533 1533 1532 1532
1503 1506 1514 1506 1506 1508 1510 1515 1512 1515 1516 1517 1520 1523 1526 1528 1529 1532 1535 1538 1539 1541 1542 1543 1543 1543 1544 1544 1543 1541 1540 1539 1537 1536 1536 1535 1534 1533 1532 1530 1529 1528 1528 1528 1527 1528 1528 1527 1527
1509 1517 1515 1508 1504 1506 1512 1512 1510 1514 1516 1516 1518 1521 1523 1526 1528 1530 1533 1535 1538 1540 1541 1541 1542 1542 1542 1542 1540 1539 1538 1536 1535 1534 1533 1531 1530 1529 1528 1526 1524 1523 1522 1521 1520 1520 1521 1521 1521
1514 1513 1511 1511 1505 1506 1513 1511 1509 1511 1513 1515 1518 1521 1521 1523 1524 1528 1531 1533 1535 1538 1539 1539 1540 1540 1540 1540 1539 1537 1535 1533 1532 1531 1530 1528 1526 1525 1523 1521 1519 1518 1516 1515 1514 1513 1513 1513 1513
1503 1506 1508 1503 1499 1504 1504 1505 1506 1508 1512 1513 1513 1516 1518 1521 1523 1527 1529 1531 1532 1535 1537 1538 1538 1538 1539 1539 1538 1536 1533 1530 1529 1527 1526 1524 1522 1520 1518 1516 1514 1512 1511 1509 1508 1507 1506 1506 1507
1503 1506 1507 1500 1495 1501 1503 1504 1503 1505 1501 1503 1508 1512 1512 1517 1520 1524 1526 1529 1531 1533 1535 1537 1538 1538 1538 1537 1535 1533 1530 1527 1524 1521 1519 1517 1515 1513 1511 1509 1507 1506 1505 1504 1503 1502 1501 1500 1502
1499 1502 1500 1501 1498 1501 1503 1508 1505 1503 1503 1505 1506 1508 1511 1514 1520 1524 1527 1529 1532 1533 1536 1538 1538 1537 1536 1534 1532 1530 1526 1523 1519 1517 1514 1512 1509 1507 1506 1503 1501 1500 1498 1497 1496 1495 1495 1494 1495
1498 1490 1492 1496 1503 1513 1501 1520 1505 1502 1502 1504 1507 1508 1512 1516 1524 1529 1535 1535 1537 1536 1538 1540 1538 1537 1534 1531 1531 1526 1524 1520 1516 1512 1510 1507 1505 1503 1500 1498 1496 1494 1493 1491 1490 1489 1488 1487 1486
1493 1488 1492 1495 1503 1505 1506 1517 1507 1502 1503 1506 1508 1509 1513 1515 1519 1526 1534 1543 1543 1541 1538 1537 1537 1535 1531 1531 1527 1522 1520 1516 1512 1509 1507 1505 1503 1501 1498 1496 1493 1490 1488 1486 1484 1484 1483 1482 1480
1489 1493 1501 1508 1511 1523 1505 1515 1520 1513 1515 1512 1512 1512 1513 1517 1521 1527 1536 1540 1541 1542 1538 1537 1536 1533 1531 1528 1524 1519 1517 1514 1510 1506 1504 1503 1501 1498 1496 1493 1491 1488 1485 1482 1480 1478 1477 1476 1475
1495 1506 1523 1526 1533 1531 1505 1514 1517 1515 1513 1510 1513 1515 1517 1519 1521 1533 1536 1538 1541 1540 1539 1537 1535 1533 1530 1525 1521 1517 1516 1512 1507 1504 1502 1500 1497 1495 1492 1489 1487 1484 1481 1478 1475 1473 1471 1470 1469
1499 1505 1525 1522 1526 1525 1506 1516 1516 1519 1518 1517 1518 1518 1518 1520 1528 1534 1538 1539 1540 1539 1538 1536 1534 1531 1527 1522 1519 1516 1516 1509 1505 1502 1500 1497 1494 1492 1489 1486 1482 1479 1475 1472 1469 1467 1465 1464 1463
1502 1510 1507 1514 1522 1522 1517 1518 1519 1520 1523 1523 1522 1521 1522 1527 1530 1535 1538 1539 1539 1538 1536 1536 1533 1529 1525 1522 1519 1518 1513 1507 1503 1501 1498 1495 1492 1489 1485 1481 1477 1473 1469 1466 1464 1461 1459 1458 1457
1505 1510 1519 1525 1541 1542 1525 1517 1530 1525 1523 1524 1526 1524 1526 1529 1532 1535 1535 1537 1538 1537 1535 1534 1531 1527 1526 1522 1519 1516 1510 1505 1502 1498 1495 1491 1488 1485 1480 1474 1470 1465 1463 1461 1458 1456 1454 1452 1451
1517 1518 1525 1534 1552 1562 1552 1536 1523 1520 1521 1522 1525 1525 1527 1529 1533 1535 1538 1537 1537 1536 1534 1532 1529 1525 1524 1522 1517 1512 1507 1502 1499 1495 1492 1488 1485 1480 1474 1469 1464 1460 1458 1456 1453 1451 1449 1447 1446
1516 1522 1530 1545 1548 1541 1546 1542 1524 1520 1523 1527 1528 1527 1528 1532 1534 1535 1535 1535 1535 1533 1532 1531 1525 1525 1522 1518 1513 1508 1503 1499 1496 1493 1489 1485 1481 1475 1469 1463 1459 1455 1453 1451 1448 1446 1444 1442 1440